FW8576 Weather Reports


time (UTC)temp
C
wind
direction
speed
KPH
gust
KPH
rain 1hr
cm
rain 24hr
cm
rain mn
cm
humidity
%
barometer
mb
20260504003758 16 151 0.0 0.0 0.00 0.03 0.03 62 1020.9
20260504003255 17 151 0.0 3.2 0.00 0.03 0.03 61 1020.4
20260504002751 17 0 0.0 0.0 0.00 0.03 0.03 55 1020.3
20260504002249 18 0 0.0 3.2 0.00 0.03 0.03 52 1020.4
20260504001746 18 0 3.2 3.2 0.00 0.03 0.03 52 1020.5
20260504001243 18 349 3.2 3.2 0.00 0.03 0.03 50 1020.5
20260504000740 18 0 0.0 0.0 0.00 0.03 0.03 48 1020.2
20260504000237 19 345 0.0 0.0 0.00 0.03 0.03 46 1020.5
20260503235735 20 345 0.0 0.0 0.00 0.03 0.03 44 1020.2
20260503235232 20 286 0.0 1.6 0.00 0.03 0.03 42 1020.2
20260503234730 20 270 1.6 3.2 0.00 0.03 0.03 42 1020.3
20260503234228 20 286 0.0 4.8 0.00 0.03 0.03 40 1020.3
20260503233725 21 263 0.0 1.6 0.00 0.03 0.03 39 1020.2
20260503233219 21 250 3.2 4.8 0.00 0.03 0.03 38 1020.5
20260503232717 22 266 4.8 4.8 0.00 0.03 0.03 37 1020.0
20260503232214 23 173 0.0 4.8 0.00 0.03 0.03 37 1020.3
20260503231713 23 236 0.0 3.2 0.00 0.03 0.03 39 1020.3
20260503231209 22 247 4.8 6.4 0.00 0.03 0.03 36 1020.4
20260503230705 23 306 0.0 4.8 0.00 0.03 0.03 37 1020.3
20260503230203 23 313 4.8 6.4 0.00 0.03 0.03 39 1020.2
20260503225700 22 303 3.2 8.0 0.00 0.03 0.03 38 1020.4
20260503225159 22 261 3.2 8.0 0.00 0.03 0.03 39 1020.3
20260503224657 22 294 0.0 11.3 0.00 0.03 0.03 39 1020.6
20260503224155 23 292 3.2 6.4 0.00 0.03 0.03 38 1020.4
20260503223653 22 270 6.4 11.3 0.00 0.03 0.03 37 1020.5
20260503223149 23 203 1.6 3.2 0.00 0.03 0.03 38 1020.4
20260503222646 22 315 6.4 11.3 0.00 0.03 0.03 37 1020.6
20260503222144 23 257 1.6 6.4 0.00 0.03 0.03 38 1020.5
20260503221642 23 315 3.2 6.4 0.00 0.03 0.03 39 1020.5
20260503221139 24 293 6.4 6.4 0.00 0.03 0.03 38 1020.4
20260503220636 23 270 8.0 8.0 0.00 0.03 0.03 38 1020.5
20260503220132 23 237 3.2 8.0 0.00 0.03 0.03 36 1020.4
20260503215630 23 45 0.0 4.8 0.00 0.03 0.03 38 1020.6
20260503215126 22 255 4.8 8.0 0.00 0.03 0.03 38 1020.6
20260503214625 23 338 9.7 9.7 0.00 0.03 0.03 38 1020.9
20260503214120 23 209 6.4 6.4 0.00 0.03 0.03 39 1020.6
20260503213614 23 140 6.4 8.0 0.00 0.03 0.03 40 1020.4
20260503213110 23 345 0.0 4.8 0.00 0.03 0.03 38 1020.5
20260503212608 23 270 0.0 4.8 0.00 0.03 0.03 38 1020.8
20260503212105 23 270 3.2 6.4 0.00 0.03 0.03 39 1020.6
20260503211603 24 294 0.0 4.8 0.00 0.03 0.03 42 1020.8
20260503211057 22 95 6.4 11.3 0.00 0.03 0.03 40 1020.9
20260503210554 23 324 3.2 8.0 0.00 0.03 0.03 39 1020.9
20260503210050 22 210 8.0 12.9 0.00 0.03 0.03 40 1020.6
20260503205547 22 272 8.0 11.3 0.00 0.03 0.03 41 1021.0
20260503205043 22 346 3.2 8.0 0.00 0.03 0.03 40 1020.9
20260503204541 23 244 8.0 9.7 0.00 0.03 0.03 39 1020.8
20260503204038 23 225 4.8 11.3 0.00 0.03 0.03 40 1021.0
20260503203535 23 241 6.4 11.3 0.00 0.03 0.03 38 1020.8
20260503203032 23 252 8.0 8.0 0.00 0.03 0.03 40 1021.2
20260503202530 22 223 11.3 11.3 0.00 0.03 0.03 42 1021.3
20260503202027 22 306 4.8 9.7 0.00 0.03 0.03 40 1021.1
20260503201526 22 318 4.8 9.7 0.00 0.03 0.03 40 1021.5
20260503201022 22 193 4.8 8.0 0.00 0.03 0.03 40 1021.3
20260503200518 22 123 3.2 8.0 0.00 0.03 0.03 39 1021.5
20260503200015 22 270 3.2 11.3 0.00 0.03 0.03 43 1021.6
20260503195513 22 138 4.8 4.8 0.00 0.03 0.03 39 1021.6
20260503195009 22 294 8.0 11.3 0.00 0.03 0.03 37 1021.5
20260503194506 21 57 0.0 4.8 0.00 0.03 0.03 39 1021.9
20260503194006 21 289 4.8 14.5 0.00 0.03 0.03 40 1021.8
20260503193503 21 64 4.8 9.7 0.00 0.03 0.03 40 1022.0
20260503192958 22 250 6.4 11.3 0.00 0.03 0.03 39 1022.0
20260503192455 22 60 1.6 6.4 0.00 0.03 0.03 41 1022.2
20260503191950 21 285 3.2 9.7 0.00 0.03 0.03 42 1022.4
20260503191448 22 314 0.0 9.7 0.00 0.03 0.03 41 1022.5
20260503190944 22 63 0.0 9.7 0.00 0.03 0.03 42 1022.5
20260503190442 21 229 4.8 11.3 0.00 0.03 0.03 42 1022.7
20260503185939 21 238 0.0 8.0 0.00 0.03 0.03 47 1022.8
20260503185435 22 255 4.8 8.0 0.00 0.03 0.03 44 1022.8
20260503184934 21 225 3.2 14.5 0.00 0.03 0.03 44 1023.0
20260503184431 21 73 0.0 4.8 0.00 0.03 0.03 44 1023.1
20260503183927 21 249 4.8 17.7 0.00 0.03 0.03 43 1023.3
20260503183424 21 258 3.2 9.7 0.00 0.03 0.03 44 1023.1
20260503182921 20 300 4.8 12.9 0.00 0.03 0.03 45 1023.4
20260503182420 20 226 9.7 9.7 0.00 0.03 0.03 45 1023.5
20260503181917 20 270 9.7 14.5 0.00 0.03 0.03 45 1023.4
20260503181414 20 70 4.8 12.9 0.00 0.03 0.03 43 1023.5
20260503180910 20 226 8.0 14.5 0.00 0.03 0.03 44 1023.7
20260503180408 21 305 9.7 9.7 0.00 0.03 0.03 43 1023.7
20260503175904 21 320 4.8 14.5 0.00 0.03 0.03 42 1023.8
20260503175403 21 263 6.4 9.7 0.00 0.03 0.03 46 1023.8
20260503174858 20 249 8.0 9.7 0.00 0.03 0.03 44 1023.8
20260503174356 20 199 4.8 19.3 0.00 0.03 0.03 43 1023.9
20260503173851 21 219 6.4 6.4 0.00 0.03 0.03 43 1023.7
20260503173347 20 293 6.4 9.7 0.00 0.03 0.03 41 1023.9
20260503172844 20 257 8.0 16.1 0.00 0.03 0.03 43 1023.8
20260503172342 20 236 14.5 17.7 0.00 0.03 0.03 42 1024.1
20260503171838 20 220 9.7 16.1 0.00 0.03 0.03 43 1023.8
20260503171335 20 205 16.1 16.1 0.00 0.03 0.03 41 1023.9
20260503170832 20 234 6.4 17.7 0.00 0.03 0.03 44 1024.0
20260503170329 20 226 9.7 11.3 0.00 0.03 0.03 44 1024.1
20260503150721 17 96 3.2 4.8 0.00 0.03 0.03 58 1024.8
20260503150217 17 37 0.0 8.0 0.00 0.03 0.03 60 1025.0
20260503140141 15 85 3.2 8.0 0.00 0.03 0.03 80 1024.4
20260503131111 12 61 3.2 4.8 0.00 0.03 0.03 99 1024.5
20260503130609 12 63 0.0 4.8 0.00 0.03 0.03 99 1024.3
20260503130106 11 71 4.8 4.8 0.00 0.03 0.03 99 1024.3
20260503110458 7 90 0.0 0.0 0.00 0.03 0.03 99 1023.3
20260503090350 8 278 0.0 0.0 0.00 0.00 0.00 99 1021.9
20260503081317 8 74 0.0 0.0 0.00 0.00 0.00 99 1021.5
20260503080814 8 66 0.0 1.6 0.00 0.00 0.00 99 1021.6
20260503080311 8 74 0.0 0.0 0.00 0.00 0.00 99 1021.6
20260503072747 10 157 0.0 1.6 0.00 0.00 0.00 99 1021.3
20260503072244 10 106 0.0 0.0 0.05 0.00 0.00 99 1021.2
20260503071740 9 106 0.0 0.0 0.00 0.00 0.00 99 1021.1
20260503071238 8 106 0.0 0.0 0.00 0.00 0.00 99 1021.2
20260503070734 9 106 0.0 0.0 0.00 0.00 0.00 99 1021.1
20260503070232 10 106 0.0 0.0 0.00 0.00 0.00 99 1021.1
20260503060151 11 291 0.0 3.2 0.00 0.00 0.00 99 1020.8
20260503054638 11 6 0.0 0.0 0.00 0.00 0.00 99 1020.6
20260503054135 11 286 0.0 0.0 0.00 0.00 0.00 99 1021.1
20260503053633 11 7 0.0 1.6 0.00 0.00 0.00 99 1020.5
20260503053132 11 270 0.0 0.0 0.00 0.00 0.00 99 1020.8
20260503052628 11 277 1.6 3.2 0.00 0.00 0.00 99 1020.8
20260503052124 11 82 0.0 0.0 0.00 0.00 0.00 99 1021.1
20260503051619 11 82 0.0 1.6 0.00 0.00 0.00 99 1020.6
20260503051118 11 90 0.0 0.0 0.00 0.00 0.00 99 1020.9
20260503050614 11 270 0.0 1.6 0.00 0.00 0.00 99 1020.8
20260503050111 11 66 0.0 3.2 0.00 0.00 0.00 99 1020.9
20260503045608 11 11 0.0 3.2 0.00 0.00 0.00 99 1021.0
20260503045105 11 15 0.0 1.6 0.00 0.00 0.00 99 1020.6
20260503044601 11 184 0.0 0.0 0.00 0.00 0.00 99 1020.6
20260503044059 11 184 0.0 0.0 0.00 0.00 0.00 99 1020.4
20260503043555 11 184 0.0 0.0 0.00 0.00 0.00 99 1020.6
20260503043052 11 184 0.0 0.0 0.00 0.00 0.00 99 1020.2
20260503042549 11 184 0.0 0.0 0.00 0.00 0.00 99 1020.1
20260503042045 12 184 0.0 3.2 0.00 0.00 0.00 99 1020.3
20260503041543 11 145 0.0 0.0 0.00 0.00 0.00 98 1020.4
20260503041040 11 145 0.0 0.0 0.00 0.00 0.00 98 1020.3
20260503040537 12 145 0.0 0.0 0.00 0.00 0.00 98 1020.3
20260503040034 12 151 0.0 0.0 0.00 0.00 0.00 98 1020.2
20260503035531 12 151 0.0 0.0 0.00 0.97 0.97 98 1020.5
20260503035029 12 151 0.0 0.0 0.00 0.97 0.97 98 1020.3
20260503034526 12 151 0.0 0.0 0.00 0.97 0.97 98 1020.1
20260503034023 12 165 0.0 0.0 0.00 0.97 0.97 98 1020.3
20260503033520 12 165 0.0 0.0 0.00 0.97 0.97 98 1020.2
20260503033018 12 165 0.0 1.6 0.00 0.97 0.97 98 1020.2
20260503032516 12 74 0.0 0.0 0.00 0.97 0.97 98 1020.4
20260503032014 12 74 0.0 0.0 0.00 0.97 0.97 98 1020.3
20260503031511 13 74 0.0 0.0 0.00 0.97 0.97 98 1020.4
20260503031008 13 66 0.0 1.6 0.00 0.97 0.97 98 1020.3
20260503030504 12 74 1.6 1.6 0.00 0.97 0.97 97 1020.3
20260503030002 12 114 0.0 0.0 0.00 0.97 0.97 97 1020.4
20260503025458 12 74 0.0 1.6 0.00 0.97 0.97 97 1020.2
20260503024956 13 12 0.0 3.2 0.00 0.97 0.97 97 1019.9
20260503024451 13 346 0.0 3.2 0.00 0.97 0.97 97 1020.0
20260503023949 13 0 3.2 3.2 0.00 0.97 0.97 97 1020.1
20260503023446 13 0 0.0 0.0 0.00 0.97 0.97 97 1019.7
20260503022943 13 0 0.0 0.0 0.00 0.97 0.97 97 1019.4
20260503022438 13 0 0.0 0.0 0.00 0.97 0.97 97 1019.5
20260503021934 13 0 0.0 0.0 0.00 0.97 0.97 96 1019.5
20260503021430 13 352 0.0 0.0 0.00 0.97 0.97 96 1019.6
20260503020928 13 0 0.0 0.0 0.00 0.97 0.97 96 1019.5
20260503020426 13 340 0.0 0.0 0.00 0.97 0.97 96 1019.2
20260503015922 12 340 0.0 3.2 0.00 0.97 0.97 95 1019.1
20260503015419 12 165 0.0 0.0 0.00 0.97 0.97 95 1018.9
20260503014915 13 165 0.0 1.6 0.00 0.97 0.97 95 1019.0
20260503014412 13 165 0.0 3.2 0.05 0.97 0.97 95 1018.6
20260503013910 13 236 0.0 6.4 0.05 0.97 0.97 95 1018.4
20260503013406 13 180 3.2 6.4 0.00 0.97 0.97 95 1018.3
20260503012903 13 103 3.2 6.4 0.00 0.97 0.97 94 1018.1
20260503012401 13 187 1.6 11.3 0.05 0.97 0.97 94 1018.2
20260503011857 13 308 3.2 4.8 0.05 0.97 0.97 93 1018.2
20260503011354 13 250 3.2 4.8 0.00 0.94 0.94 93 1018.3
20260503010851 13 190 0.0 3.2 0.00 0.94 0.94 93 1018.1
20260503010348 13 151 0.0 3.2 0.00 0.94 0.94 93 1017.7
20260503005845 13 194 1.6 4.8 0.00 0.94 0.94 93 1017.9
20260503005343 13 346 0.0 0.0 0.00 0.94 0.94 93 1017.7
20260503004838 13 83 0.0 1.6 0.00 0.94 0.94 93 1017.5
20260503004336 13 159 3.2 4.8 0.00 0.94 0.94 93 1017.5
20260503003833 13 251 0.0 3.2 0.00 0.94 0.94 92 1017.3